Delta Virtual Airport Information Service

Kahului Airport

ICAO: PHOG Country: United States
Latitude: 20.8986 Longitude: -156.43
Latest Arrival : HAL106 (PHNL-PHOG) Latest Departure : HAL105 (PHOG-PHNL)


WX CaptureLIVE
Data provided by noaa.gov | Fetched at 04:01:40

METAR : PHOG 300854Z 02010KT 10SM FEW024 SCT030 27/21 A2994 RMK AO2 SLP142 T02720206 50012

TAF : PHOG 300530Z 3006/0106 04008KT P6SM FEW020 FM302000 03012KT P6SM SCT030 SCT060 LTD TO VIS AND WIND 3009/3016


Runway Data for PHOG
Data provided by openaviationdata.com

Runway ID Mag Var Hdg Length Elevation Surface ILS Freq ILS Id ILS Slope
2 10 24° 7011 ft 18 ft Asphalt 110.1 IOGG 3
5 10 54° 4991 ft 18 ft Asphalt -- -- --
20 10 204° 7011 ft 18 ft Asphalt -- -- --
23 10 234° 4991 ft 18 ft Asphalt -- -- --

Kahului Airport, United States
Use only for reference purposes



Not for navigational purposes.